Location: Rounton
(54.4000°N, 1.3500°W)
Time: 17:02:27
(UTC+00:00)

Tiros 1 despin weight - Pass Details

Date: 02 December 2021
Orbit: 592 x 641 km, 48.2° (Epoch: 21 January)

Event Time Altitude Azimuth Distance (km) Brightness Sun altitude
Rises 18:11:24 0° 269° (W) 2,826 ? -20.1°
Reaches altitude 10° 18:13:56 10° 257° (WSW) 1,924 ? -20.5°
Maximum altitude 18:17:38 27° 200° (SSW) 1,159 ? -21.0°
Enters shadow 18:19:50 18° 157° (SSE) 1,478 ? -21.3°
